Das Wetter in  D-61279 Heinzenberg / Taunus





Wetter Minimum- & Maximum-Werte im Juli 2018

Standort: Heinzenberg / Taunus - Höhe 297 m         8° 24' 1" Ost 50° 21' 51" Nord
(   3-stündige Aktualisierung    letzte Aktualisierung um 20:46 am 31.07.2018  )


Messgrösse

Minimum

Maximum

Durchschnitt

Temperatur West /
Luftfeuchte West
Anklicken für Monats-Diagramm

8,6 °C

06:13
03.07.2018

23 %

19:03
03.07.2018

38,0 °C

15:59
26.07.2018

92 %

08:40
06.07.2018

Temp

21,3 °C

Feuchte

61 %

Temperatur Ost /
Luftfeuchte Ost
Anklicken für Monats-Diagramm

8,8 °C

06:08
03.07.2018

--

--
--

37,8 °C

15:54
26.07.2018

--

--
--

21,6 °C

--

Luftdruck Anklicken für Monats-Diagramm

1004,9 hPa

09:26
28.07.2018

1022,0 hPa

06:43
09.07.2018

1013,9 hPa

Taupunkt

3,0 °C

06:13
03.07.2018

18,9 °C

13:31
22.07.2018

12,6 °C

Windchill
( gefühlte Temperatur )

6,3 °C

22:19
10.07.2018

38,0 °C

15:59
26.07.2018

21,1 °C

Windgeschwindigkeit /
Windrichtung
Anklicken für Monats-Diagramm

---

41,4 km/h / NW

13:49
05.07.2018

3,2 km/h
NW

Helligkeit /
Sonnenschein
Anklicken für Monats-Diagramm
Anklicken für Monats-Diagramm

Sonnenschein:

292:01 Stunden

Max: 14:30 Std am
01.07.2018

119 klux

12:16
12.07.2018

42 klux

Solarstrahlung Anklicken für Monats-Diagramm

---

814 W/m²

12:16
12.07.2018

313 W/m²

Regenmenge
    Juli 2018
Anklicken für Monats-Diagramm

Insgesamt 49,6 l/m²

in 24:23 Stunden
an 10 Tagen

34,4 l/m²

15:09
05.07.2018

Gesamtmenge

49,6 l/m²

Regen-Tage
    Juli 2018
Anklicken für Monats-Diagramm

>   0 mm/Tag

>   2 mm/Tag

>   5 mm/Tag

> 10 mm/Tag

> 20 mm/Tag

10 Tage     
4 Tage     
2 Tage     
  1 Tag     
  1 Tag     

Eisige Tage Juli 2018 / 2017

Tmin ≤ -10°C     

0 Tage

/

0 Tage

Eistage Juli 2018 / 2017

Tmax <     0°C     

0 Tage

/

0 Tage

Frosttage Juli 2018 / 2017

Tmin ≤     0°C     

0 Tage

/

0 Tage

Kalte Tage Juli 2018 / 2017

Tmax <   10°C     

0 Tage

/

0 Tage

Warme Tage Juli 2018 / 2017

Tmax ≥   20°C     

30 Tage

/

26 Tage

Sommertage Juli 2018 / 2017

Tmax ≥   25°C     

28 Tage

/

16 Tage

Heisse Tage Juli 2018 / 2017

Tmax ≥   30°C     

18 Tage

/

7 Tage


Monatsdiagramm Juli 2018

Die Kurven zeigen den Durchschnittswert des jeweiligen Tages an


Wetter-Monatsübersicht Juli 2018
Datum
  Temperatur
   Luftdruck
   Wind
  Regen
   Luftfeuchte
   Helligkeit

Sonnen-
schein

Ø
Temp.

Min.
Temp.

Max.
Temp.

Ø
Luftdruck

Min.
Luftdruck

Max.
Luftdruck

Ø-Geschw.
Haupt-Richtg.

Max.
Wind

Menge /
Dauer

Ø
Feuchte

Min.
Feuchte

Max.
Feuchte

Ø
Helligkeit

Max.
Helligkeit

1.
Juli
19,9 °C9,4 °C
05:41
29,1 °C
16:46
1014,7 hPa1012,6 hPa
16:46
1016,9 hPa
05:41
3,0 km/h
O
20,2 km/h
15:56  
---
43 %28 %
17:56
67 %
05:46
52,5 klux92,6 klux
13:46
14:30 Std 
2.
Juli
20,2 °C9,2 °C
06:02
31,1 °C
16:32
1013,8 hPa1011,3 hPa
16:32
1015,9 hPa
06:37
2,2 km/h
SO
23,4 km/h
09:47  
---
44 %28 %
16:32
67 %
05:57
52,0 klux92,3 klux
13:37
14:25 Std 
3.
Juli
20,8 °C8,6 °C
06:13
31,8 °C
17:38
1014,2 hPa1011,3 hPa
18:53
1017,0 hPa
06:18
2,3 km/h
NW
18,5 km/h
10:13  
---
45 %23 %
19:03
69 %
06:08
51,6 klux92,2 klux
13:38
14:15 Std 
4.
Juli
21,3 °C13,8 °C
05:53
30,2 °C
13:38
1012,4 hPa1009,9 hPa
19:28
1014,3 hPa
06:38
4,5 km/h
W-NW
25,4 km/h
16:04  
---
56 %36 %
12:53
72 %
23:44
35,3 klux103,0 klux
14:33
4:55 Std 
5.
Juli
18,4 °C13,9 °C
05:34
26,6 °C
11:49
1011,6 hPa1009,7 hPa
11:49
1013,9 hPa
23:50
2,9 km/h
NW
41,4 km/h
13:49  
34,4 l/m²
4:15 Stunden
79 %57 %
12:29
88 %
17:59
25 klux98 klux
11:39
5:10 Std 
6.
Juli
20,2 °C15,0 °C
05:15
28,1 °C
16:10
1016,2 hPa1013,9 hPa
00:00
1020,2 hPa
23:56
5,2 km/h
NW
25,8 km/h
13:30  
---
72 %44 %
16:30
92 %
08:40
46,9 klux105,0 klux
11:40
9:44 Std 
7.
Juli
20,4 °C13,2 °C
03:51
28,2 °C
16:01
1019,9 hPa1017,8 hPa
17:06
1021,6 hPa
05:46
3,9 km/h
NW
23,0 km/h
14:46  
---
63 %40 %
18:56
84 %
06:06
49 klux112 klux
15:16
11:00 Std 
8.
Juli
19,9 °C11,2 °C
06:37
28,8 °C
17:37
1020,1 hPa1017,8 hPa
17:37
1021,9 hPa
06:37
3,6 km/h
NW
21,5 km/h
16:42  
---
57 %34 %
14:52
82 %
07:37
52 klux92 klux
13:52
14:20 Std 
9.
Juli
19,2 °C10,6 °C
06:08
28,7 °C
16:23
1018,9 hPa1016,3 hPa
18:53
1022,0 hPa
06:43
2,1 km/h
N-NW
20,1 km/h
11:53  
---
58 %37 %
16:33
78 %
07:13
45,3 klux109,0 klux
13:58
8:45 Std 
10.
Juli
16,5 °C13,3 °C
23:50
20,1 °C
15:59
1014,7 hPa1012,3 hPa
22:25
1016,9 hPa
01:59
12,5 km/h
NW
32,9 km/h
18:44  
2,1 l/m²
2:06 Stunden
67 %52 %
13:49
85 %
21:59
34 klux116 klux
13:39
4:15 Std 
11.
Juli
14,5 °C11,5 °C
03:05
19,4 °C
15:50
1014,2 hPa1013,4 hPa
00:00
1015,4 hPa
09:05
2,4 km/h
NW
24,1 km/h
15:40  
6,4 l/m²
6:51 Stunden
82 %61 %
16:25
89 %
05:25
24 klux110 klux
11:55
1:50 Std 
12.
Juli
18,7 °C14,0 °C
05:36
26,0 °C
17:31
1015,4 hPa1014,0 hPa
19:06
1018,1 hPa
23:57
1,8 km/h
NW
16,7 km/h
20:11  
0,2 l/m²
35 Minuten
76 %53 %
18:11
91 %
06:26
41 klux119 klux
12:16
7:35 Std 
13.
Juli
19,9 °C12,3 °C
06:32
27,8 °C
13:37
1017,5 hPa1015,8 hPa
17:17
1019,3 hPa
08:57
0,7 km/h
NW
13,6 km/h
17:22  
---
5 Minuten
70 %49 %
15:07
89 %
08:17
42 klux104 klux
14:32
7:50 Std 
14.
Juli
21,5 °C13,3 °C
05:23
30,8 °C
17:28
1016,5 hPa1013,4 hPa
17:28
1018,5 hPa
05:23
1,4 km/h
NW
12,6 km/h
16:18  
---
64 %39 %
15:53
85 %
06:43
48 klux93 klux
13:38
11:01 Std 
15.
Juli
22,4 °C14,0 °C
06:09
33,0 °C
17:39
1013,7 hPa1010,1 hPa
17:39
1016,4 hPa
06:09
1,6 km/h
NW
29,4 km/h
20:24  
---
59 %33 %
18:04
84 %
07:39
48,9 klux91,1 klux
13:39
11:50 Std 
16.
Juli
21,3 °C15,6 °C
06:15
31,6 °C
16:25
1011,2 hPa1008,2 hPa
16:25
1013,8 hPa
00:20
2,6 km/h
W-SW
37,8 km/h
17:10  
1,5 l/m²
45 Minuten
62 %36 %
16:50
79 %
21:50
45,4 klux99,5 klux
14:20
8:55 Std 
17.
Juli
20,7 °C12,4 °C
05:51
31,0 °C
15:36
1012,4 hPa1010,3 hPa
15:36
1014,7 hPa
23:52
5,6 km/h
NW
37,3 km/h
17:31  
---
62 %35 %
15:41
84 %
07:26
43 klux95 klux
14:31
9:30 Std 
18.
Juli
21,2 °C13,6 °C
06:32
29,1 °C
16:37
1015,6 hPa1013,6 hPa
16:47
1017,5 hPa
06:32
6,2 km/h
W-NW
25,9 km/h
13:32  
---
56 %35 %
17:12
80 %
07:02
51,3 klux92,3 klux
13:47
14:05 Std 
19.
Juli
21,2 °C11,6 °C
05:58
31,1 °C
16:23
1015,6 hPa1012,5 hPa
18:48
1017,7 hPa
05:58
1,3 km/h
NW
13,6 km/h
14:13  
---
55 %33 %
17:23
79 %
07:23
49,7 klux92,3 klux
13:18
12:55 Std 
20.
Juli
22,1 °C11,4 °C
06:29
34,4 °C
16:19
1011,2 hPa1007,2 hPa
18:44
1015,3 hPa
02:24
1,0 km/h
W-NW
13,3 km/h
13:49  
---
53 %30 %
16:24
75 %
06:24
45,8 klux101,0 klux
13:09
9:15 Std 
21.
Juli
18,8 °C16,1 °C
05:45
21,4 °C
18:30
1009,7 hPa1007,7 hPa
04:15
1010,8 hPa
23:51
0,0 km/h
N
0,6 km/h
08:00  
2,0 l/m²
6:00 Stunden
79 %56 %
00:00
86 %
23:16
11 klux29 klux
14:35
--- 
22.
Juli
19,5 °C15,3 °C
06:26
28,2 °C
13:31
1012,1 hPa1010,6 hPa
13:31
1014,9 hPa
23:57
0,7 km/h
W-NW
17,9 km/h
14:11  
2,7 l/m²
2:31 Stunden
81 %55 %
13:36
90 %
08:06
29,9 klux99,0 klux
13:46
4:20 Std 
23.
Juli
21,8 °C13,1 °C
06:22
30,6 °C
16:12
1014,8 hPa1012,5 hPa
18:42
1016,5 hPa
06:37
3,9 km/h
NW
23,5 km/h
13:17  
---
67 %41 %
16:17
90 %
07:42
48,6 klux98,1 klux
13:07
12:40 Std 
24.
Juli
24,6 °C13,8 °C
06:37
35,4 °C
16:07
1012,5 hPa1008,8 hPa
17:32
1015,9 hPa
00:52
1,9 km/h
W-SW
19,9 km/h
16:12  
---
57 %31 %
16:12
83 %
07:22
50,4 klux90,6 klux
13:22
13:46 Std 
25.
Juli
25,2 °C16,4 °C
06:33
36,6 °C
16:03
1012,2 hPa1009,9 hPa
18:03
1014,0 hPa
07:13
1,5 km/h
W-NW
25,3 km/h
19:13  
0,3 l/m²
30 Minuten
56 %33 %
16:08
75 %
07:03
38,8 klux100,0 klux
15:03
7:15 Std 
26.
Juli
27,9 °C17,8 °C
06:49
38,0 °C
15:59
1012,2 hPa1009,6 hPa
16:54
1014,9 hPa
06:34
1,6 km/h
SO
22,2 km/h
12:49  
---
49 %27 %
17:29
75 %
06:54
49 klux92 klux
15:04
12:55 Std 
27.
Juli
26,3 °C15,0 °C
06:10
36,3 °C
15:15
1010,2 hPa1005,8 hPa
19:15
1013,9 hPa
03:10
2,1 km/h
SO
24,9 km/h
12:40  
---
46 %28 %
17:45
69 %
07:20
47,2 klux93,6 klux
14:50
12:45 Std 
28.
Juli
23,4 °C17,4 °C
06:51
30,4 °C
14:21
1007,2 hPa1004,9 hPa
09:26
1011,6 hPa
23:52
4,9 km/h
NW
34,4 km/h
15:06  
---
45 Minuten
60 %46 %
00:01
74 %
23:52
32,4 klux107,0 klux
12:36
4:55 Std 
29.
Juli
22,9 °C15,3 °C
06:32
30,9 °C
18:32
1012,1 hPa1009,3 hPa
18:32
1014,1 hPa
06:32
6,6 km/h
W-SW
35,0 km/h
12:32  
---
62 %37 %
19:32
83 %
07:07
39 klux111 klux
12:22
6:30 Std 
30.
Juli
24,9 °C15,3 °C
06:23
34,1 °C
15:33
1012,9 hPa1011,0 hPa
15:28
1015,0 hPa
08:08
3,1 km/h
W-SW
30,5 km/h
14:03  
---
54 %34 %
16:03
76 %
07:13
41 klux103 klux
13:58
8:35 Std 
31.
Juli
26,1 °C16,6 °C
06:59
35,1 °C
17:04
1013,6 hPa1011,9 hPa
17:04
1016,3 hPa
23:55
5,8 km/h
NW
23,6 km/h
14:39  
---
53 %33 %
18:49
75 %
06:59
48 klux100 klux
13:54
12:15 Std 



Juli
2018

Temperatur

  

Luftdruck

  

Wind

  

Regen

  

Luftfeuchte

  

Helligkeit

Sonnen-
schein

Ø

Min

Max

Ø

Min

Max

Ø

Max

Max

Ø

Min

Max

Ø

Max

Max

21,3 °C

8,6 °C

06:13 Uhr
03.07.2018

38,0 °C

15:59 Uhr
26.07.2018

1013,9 hPa

1004,9 hPa

09:26 Uhr
28.07.2018

1022,0 hPa

06:43 Uhr
09.07.2018

3,2 km/h

NW

41,4 km/h

13:49 Uhr
05.07.2018

34,4 l/m²

4:15 Stunden
05.07.2018

61 %

23 %

19:03 Uhr
03.07.2018

92 %

08:40 Uhr
06.07.2018

42 klux

119,0 klux

12:16 Uhr
12.07.2018

14:30 Std

am
01.07.2018

Gesamt

Gesamt

49,6 l/m²

10 Tage
24:23 h

292:01 Std


Wetter-Diagramme Juli 2018     Heinzenberg / Taunus   
TemperaturLuftfeuchte
SolarstrahlungLuftdruck
HelligkeitSonnenschein
RegenmengeRegendauer
Wind-GeschwindigkeitWind-Richtung